Theta_e
317 318 318 317 317 317 317 318 318 318 318 317 317 316 317 317 318 318 318 319 318 318 319 320 321 324 319 308 313 341 358 353 342 336 323 322 324 323 318 318 317 313 315 317 318 318 319
317 317 317 317 317 316 317 317 317 317 317 316 316 317 317 317 318 317 317 317 317 318 319 320 322 323 320 305 322 345 339 339 334 328 324 324 326 325 321 316 313 314 314 315 316 317 319
316 316 316 316 316 316 316 316 316 316 315 316 316 316 316 317 317 317 317 316 316 317 319 320 322 323 314 308 318 337 334 331 332 325 321 326 326 319 318 313 317 314 309 312 314 315 315
316 315 316 316 315 315 315 315 315 314 315 315 315 315 315 316 316 316 315 315 316 317 319 321 324 320 309 318 316 318 330 331 329 325 324 324 322 316 309 313 311 307 306 301 311 314 315
316 315 315 315 315 314 314 314 314 314 314 314 314 315 315 315 314 314 314 314 316 320 322 325 320 313 307 326 316 318 319 326 328 326 325 329 320 309 310 304 300 302 298 301 305 313 314
316 316 316 316 315 315 315 315 315 314 314 314 314 314 314 314 313 313 313 314 317 320 320 323 321 309 314 311 318 318 316 322 324 323 320 318 310 304 303 299 293 298 299 301 303 311 313
317 316 315 315 315 315 315 315 315 314 314 313 313 313 313 313 312 312 309 307 309 310 311 309 310 310 312 317 320 316 317 316 318 319 309 312 302 298 302 304 306 305 304 302 306 311 307
318 317 316 316 316 316 315 315 315 314 314 314 313 313 313 312 311 311 308 307 307 308 301 309 309 310 313 315 311 315 316 308 309 306 309 305 301 307 310 309 307 306 303 302 306 310 306
320 319 318 317 316 316 316 315 314 314 313 313 313 313 312 311 310 311 307 307 312 310 299 304 308 308 309 310 308 312 312 310 306 304 305 302 305 311 309 307 305 302 300 302 302 306 306
321 320 319 318 317 316 316 315 314 314 313 313 312 312 311 309 307 305 306 312 312 310 293 300 304 308 309 310 305 313 316 312 308 304 306 304 310 309 308 306 306 296 307 307 306 301 295
321 320 320 319 318 316 316 314 314 313 313 312 312 312 311 309 303 305 310 313 312 306 285 305 306 315 310 305 307 308 315 311 305 306 306 304 307 307 306 307 308 302 308 305 304 299 296
321 321 320 319 318 317 316 314 313 313 312 312 311 311 310 307 305 309 310 311 306 292 288 301 307 305 305 306 306 309 310 314 311 306 307 307 312 310 308 311 310 310 305 302 300 295 291
322 321 321 320 319 317 316 314 313 312 312 311 311 309 307 307 301 306 309 305 291 288 303 299 301 304 305 303 304 305 304 304 301 296 297 303 306 310 312 307 308 305 299 289 288 289 291
321 321 321 320 319 318 316 314 313 312 312 311 309 308 308 310 309 308 307 297 288 297 298 304 304 304 302 304 304 305 303 301 306 303 298 296 296 306 310 307 303 302 298 290 286 289 293
321 320 320 320 319 318 316 314 313 312 311 310 307 307 309 312 312 312 301 290 292 299 303 301 302 299 300 304 304 304 302 301 305 306 299 297 298 309 310 311 308 302 298 301 293 294 291
321 320 320 320 319 318 316 314 313 312 310 308 301 304 309 314 315 308 297 293 297 302 303 302 296 300 298 301 301 301 302 307 306 308 309 303 296 305 309 311 310 305 306 296 294 288 288
319 319 319 319 319 318 316 314 312 311 309 307 303 304 311 316 314 304 294 296 300 305 305 301 299 299 300 300 300 299 301 306 308 308 309 306 302 301 306 303 301 303 302 298 297 295 290
319 318 318 319 319 318 316 314 312 310 307 305 302 298 315 315 301 302 298 302 302 303 305 303 303 302 300 301 299 300 300 304 310 308 303 307 302 298 300 307 310 307 304 303 294 292 295
319 319 318 318 318 318 316 314 312 309 308 300 298 302 312 310 295 296 300 303 305 304 302 302 301 303 303 300 296 302 303 307 309 308 306 305 301 296 294 300 305 303 306 303 300 297 294
317 318 318 318 318 317 316 314 312 311 310 303 299 298 305 307 306 301 299 300 301 307 306 306 302 302 300 298 301 299 302 306 309 308 322 312 301 300 294 298 303 302 305 304 298 294 296
315 317 318 317 318 317 315 314 313 311 310 303 302 302 305 299 300 303 305 305 302 301 305 308 305 302 300 295 298 298 301 304 307 311 310 307 299 305 303 306 306 304 304 304 302 300 299
315 316 318 317 317 317 315 314 313 311 309 302 299 299 301 298 301 301 302 303 304 303 304 304 303 306 306 300 301 299 301 299 301 306 306 310 301 304 303 307 306 305 308 308 310 311 308
313 315 317 317 317 316 315 314 313 311 307 304 307 307 302 298 298 298 302 306 306 307 308 308 306 304 304 307 310 310 309 306 304 302 305 305 301 299 298 305 304 299 312 314 314 312 314
312 313 315 317 317 316 315 314 312 312 308 304 304 303 299 293 296 298 303 307 306 307 305 308 309 306 311 316 315 313 310 308 307 306 310 305 301 300 298 302 293 304 313 317 311 314 315
312 312 314 316 317 317 316 314 313 311 311 305 305 302 300 294 297 298 302 303 304 307 307 307 311 314 314 312 305 302 301 302 304 307 306 305 302 295 296 295 301 310 308 309 308 304 316
314 312 313 316 317 317 316 314 313 311 311 306 304 307 304 296 295 300 297 301 300 300 303 306 312 313 313 307 303 296 295 300 298 300 304 304 303 299 298 294 293 308 310 314 312 302 317
313 312 312 315 317 317 316 314 313 311 311 306 305 307 304 297 300 300 296 297 302 302 301 306 304 307 311 305 302 299 297 305 299 298 302 302 302 298 298 296 305 313 312 315 300 304 321
312 313 312 314 316 316 316 314 313 311 312 308 305 308 305 299 300 302 303 300 301 302 299 303 303 307 307 303 301 300 301 302 303 304 300 300 298 299 300 296 294 317 315 310 314 318 320
312 313 313 314 315 315 315 315 313 312 312 309 301 310 310 304 300 304 304 304 303 302 300 302 305 309 309 306 305 305 300 303 301 297 305 300 304 301 302 303 314 317 315 319 319 316 318
Wind_Speed
15 16 16 16 16 17 17 17 17 18 19 20 21 22 23 23 23 23 22 23 23 21 19 18 17 16 9 5 11 5 8 6 5 3 10 10 12 9 12 12 14 9 15 12 10 12 14
14 15 16 16 17 17 17 18 18 19 19 20 21 22 22 23 23 24 24 23 23 23 20 16 14 13 3 9 6 9 8 7 8 8 7 10 7 11 12 12 8 10 18 20 15 14 16
13 13 14 15 16 17 17 18 19 19 20 21 22 22 22 22 24 25 26 26 25 23 20 15 11 5 5 21 5 9 10 7 7 9 10 13 12 9 9 11 10 13 15 18 11 14 17
12 12 13 14 15 16 17 18 19 20 21 21 22 23 24 25 25 26 26 29 29 24 20 15 7 5 10 10 12 16 12 9 10 10 12 14 9 6 3 7 10 11 10 8 18 18 21
11 12 12 13 15 15 16 17 18 19 19 21 22 24 25 26 26 27 30 32 31 23 12 4 4 4 10 10 9 15 14 12 12 12 12 15 7 4 6 6 7 8 11 15 20 22 20
11 12 13 13 14 15 15 15 16 17 18 19 22 24 25 27 28 27 31 32 23 8 3 8 7 5 10 13 10 11 11 12 9 11 14 10 4 4 4 3 8 11 8 10 15 19 8
11 11 12 14 15 15 15 16 17 18 19 20 22 24 26 27 27 23 17 10 8 3 4 8 4 7 19 18 16 14 13 9 12 11 11 9 5 8 13 15 17 17 17 12 9 9 7
10 11 11 12 13 13 14 16 18 20 20 21 23 25 27 30 32 30 4 4 12 6 10 12 19 23 20 18 24 20 10 12 10 14 9 7 12 15 17 19 19 18 12 8 9 11 7
10 10 9 10 11 11 12 13 14 16 18 19 20 22 24 29 33 10 8 14 11 11 8 18 24 19 20 16 23 24 10 11 10 14 14 15 16 19 20 20 20 11 6 5 8 14 10
11 11 10 10 11 12 13 15 17 19 21 22 22 22 24 29 7 11 7 15 13 11 5 8 9 14 13 22 22 23 21 15 12 18 18 15 19 22 21 18 21 7 6 8 11 8 6
13 12 11 11 11 12 13 15 16 18 20 22 23 21 22 12 9 6 9 15 17 6 7 9 10 10 10 17 25 18 22 17 17 15 11 18 23 18 15 15 10 9 8 10 11 8 4
13 13 12 12 11 12 13 15 16 18 21 23 24 21 19 8 5 14 15 16 6 1 8 9 15 23 18 18 22 22 20 20 18 19 16 22 20 19 15 17 11 7 5 7 6 3 5
13 13 13 12 12 12 12 14 16 19 22 25 28 28 15 6 7 5 11 5 2 5 8 11 11 18 22 12 24 24 25 22 16 13 17 18 21 22 19 16 10 6 3 2 6 4 12
11 12 13 12 12 12 12 13 16 18 21 24 28 33 10 9 9 10 3 3 5 9 11 14 23 24 19 16 8 18 18 17 20 18 8 17 18 20 23 17 9 7 8 8 8 7 10
11 11 12 12 11 11 11 12 14 17 21 23 29 5 6 8 12 8 1 4 5 6 11 18 24 20 22 20 15 9 9 12 19 22 18 14 18 18 23 22 15 8 8 9 3 7 3
11 11 11 11 10 10 10 11 14 17 22 24 8 6 7 6 13 3 2 5 8 17 21 19 20 20 19 17 15 15 9 13 13 12 14 18 11 13 16 15 20 13 9 5 2 4 7
10 10 11 10 10 9 9 10 12 16 22 29 3 5 4 9 5 1 4 7 16 19 19 17 19 20 17 17 16 16 7 13 14 15 20 12 7 12 17 20 12 4 10 4 7 7 6
10 10 10 11 9 8 8 9 11 14 23 8 5 4 4 1 2 4 7 8 11 18 15 18 15 13 8 11 13 15 18 10 14 14 16 6 5 13 18 22 15 12 12 16 7 9 4
10 10 11 10 9 8 7 7 9 10 12 6 5 5 7 3 3 6 10 16 19 11 11 12 12 13 14 10 10 12 17 19 11 17 6 6 4 6 3 9 14 10 9 7 7 6 12
11 9 10 10 8 7 6 7 7 8 8 4 5 5 3 3 5 8 12 14 16 17 13 12 9 9 11 12 13 10 15 16 10 22 11 7 6 3 4 8 6 7 6 9 5 5 9
11 10 9 9 8 7 7 6 7 7 7 3 4 3 7 5 10 15 14 14 13 17 13 11 11 10 9 9 10 11 16 17 14 19 8 5 6 10 10 9 10 12 13 21 15 7 7
10 10 9 8 8 8 7 6 6 7 11 3 4 5 8 10 10 14 14 10 16 14 4 8 10 19 15 9 8 13 13 8 9 15 9 3 4 7 8 10 11 12 10 10 9 13 14
11 9 9 8 9 9 8 7 5 5 5 4 6 6 5 7 8 10 7 5 17 16 2 4 11 12 15 13 9 15 10 8 10 8 4 3 3 6 6 7 8 7 17 14 13 20 7
10 10 9 9 9 10 9 8 5 2 3 4 3 6 4 7 9 11 21 11 14 12 8 12 16 7 10 19 26 15 12 11 10 12 7 3 3 4 7 2 4 8 15 27 25 22 16
10 11 10 9 10 11 10 8 6 4 1 3 5 4 4 7 10 15 18 18 20 12 6 10 8 6 9 15 13 8 8 6 10 13 3 5 6 2 2 3 6 5 8 4 6 9 17
9 10 10 9 10 11 11 10 8 6 2 3 7 8 6 6 7 14 17 16 9 13 11 10 11 10 10 10 7 3 3 8 6 6 4 2 6 6 1 2 4 2 1 11 4 7 7
9 11 11 9 9 12 12 11 9 6 3 2 6 7 4 6 12 9 8 11 13 10 7 5 15 6 4 5 5 4 4 5 7 8 9 3 3 7 4 4 2 7 5 6 1 6 10
9 9 10 9 10 13 12 11 10 7 4 2 8 9 4 5 13 13 15 12 10 7 5 10 8 8 5 5 7 5 4 5 6 3 7 7 6 6 7 3 2 7 4 5 4 5 10
9 9 9 8 9 13 12 11 10 8 5 1 5 6 7 5 12 22 24 22 20 19 7 4 2 0 2 5 4 1 3 6 2 5 5 2 4 4 3 3 7 11 10 9 7 5 8
Wind_Direction
20 18 18 16 13 10 7 3 0 357 353 350 347 343 339 335 332 329 325 320 317 314 313 314 320 327 340 288 254 127 141 140 164 232 224 228 257 247 267 281 306 337 315 324 318 328 312
17 14 12 10 7 7 5 2 358 355 352 347 342 339 335 332 329 326 322 317 311 307 306 308 315 318 262 268 237 138 162 144 215 211 233 236 255 260 266 290 310 302 305 311 309 293 289
15 13 9 8 4 3 1 358 355 352 349 344 340 336 333 329 327 323 320 314 309 302 300 298 300 280 260 241 279 175 179 184 231 191 233 234 242 263 294 308 308 307 313 305 295 279 270
11 9 5 5 2 0 358 356 353 348 346 341 339 335 333 328 326 321 317 311 305 298 291 284 240 240 249 255 242 246 207 200 215 248 230 261 269 262 261 307 309 300 311 300 282 280 270
3 5 1 2 359 357 356 354 348 343 343 341 336 335 330 326 325 322 318 311 300 290 256 177 191 220 262 272 220 234 201 197 205 222 255 258 279 266 322 291 287 265 251 260 271 267 262
353 354 355 354 353 351 352 347 341 342 341 338 340 331 328 324 325 323 317 304 287 334 202 185 254 289 265 255 238 213 225 197 214 211 231 244 252 245 278 244 245 252 233 241 247 277 317
339 339 342 349 349 347 344 340 336 340 341 338 335 332 330 327 317 316 332 344 354 354 233 260 261 261 295 294 285 218 214 200 214 239 228 221 199 219 231 239 242 254 265 274 283 310 7
319 324 331 336 335 335 335 336 338 337 335 332 332 331 330 327 321 317 286 278 310 303 298 284 282 276 274 286 285 279 189 196 202 221 238 257 229 228 237 253 254 257 261 291 320 307 296
298 303 310 315 317 320 324 327 328 327 327 327 328 328 330 327 316 307 306 282 292 323 282 277 258 265 249 244 259 262 211 215 206 221 226 226 233 240 235 245 257 260 256 306 279 285 306
289 293 297 304 314 319 324 329 332 330 329 328 329 332 332 334 337 335 287 345 337 324 293 272 252 242 239 224 249 254 258 203 220 218 224 237 244 246 252 237 239 221 262 249 258 267 247
281 284 289 296 305 315 321 325 326 326 324 322 323 328 326 327 296 294 303 327 315 340 300 295 266 232 216 195 223 236 250 249 247 228 213 238 241 246 249 251 247 230 220 245 270 286 318
281 285 288 291 301 309 314 317 320 320 319 318 317 318 330 318 210 247 288 287 318 289 252 271 298 305 307 208 221 236 237 232 234 247 240 234 252 258 255 263 244 214 271 295 296 282 315
279 282 284 285 287 294 304 311 317 320 321 319 317 314 312 274 236 357 326 313 298 225 310 282 314 317 314 311 214 216 227 234 214 222 246 258 248 257 264 275 284 158 154 306 324 330 238
275 275 274 278 279 285 297 307 314 317 317 317 315 310 261 207 230 253 276 321 247 263 262 293 313 328 316 311 290 223 220 226 241 215 209 231 253 236 258 254 214 205 160 164 219 228 260
275 274 273 269 271 279 288 301 311 317 318 320 313 280 263 226 214 237 278 247 255 272 283 310 321 312 319 319 330 312 285 223 223 232 228 234 242 229 239 252 245 250 220 206 204 259 300
289 281 277 272 266 275 286 305 317 321 322 319 315 290 272 249 169 189 207 257 280 297 291 299 299 300 312 315 346 7 21 331 359 281 302 210 239 244 260 256 239 202 195 250 331 219 274
300 298 291 277 273 276 288 306 319 328 328 316 259 288 224 140 141 170 234 256 289 290 291 289 283 290 305 318 335 332 305 309 15 330 340 329 239 249 232 250 237 264 220 192 153 160 205
296 298 293 275 264 266 281 306 324 340 335 342 296 278 169 262 233 214 234 249 265 282 279 286 290 292 283 299 308 315 315 336 329 332 323 302 262 226 264 269 269 246 237 199 147 267 210
288 294 297 288 259 251 273 297 318 349 15 325 294 278 272 190 260 273 283 295 307 284 267 292 313 323 326 325 330 297 306 313 332 326 1 330 321 321 298 266 258 239 265 180 168 128 232
286 284 292 290 253 244 263 285 310 339 2 325 285 299 257 170 237 274 297 284 311 319 327 339 285 309 319 316 310 310 315 310 357 305 314 310 266 229 226 236 265 163 336 331 183 144 229
284 283 281 279 237 231 248 274 298 326 350 304 246 310 0 322 336 322 309 319 312 312 317 354 333 318 270 275 291 301 308 317 332 297 333 73 318 317 306 312 326 63 341 291 286 237 172
285 280 281 274 222 224 234 257 286 324 330 243 295 348 349 297 294 307 295 301 301 294 350 330 334 324 321 311 292 298 272 291 264 298 307 101 303 331 307 347 51 84 345 293 348 0 331
281 283 278 260 226 213 224 243 270 337 351 284 351 340 324 289 291 291 301 286 298 317 315 305 305 309 316 306 318 311 294 285 252 258 267 117 107 32 321 14 12 49 19 44 48 28 25
278 274 272 265 222 212 214 227 245 307 21 311 294 308 297 294 311 310 316 317 306 302 315 322 326 330 302 337 325 301 306 310 312 309 200 125 66 93 293 6 22 101 51 76 61 36 12
277 270 260 259 225 213 212 217 228 252 350 281 307 292 316 300 315 304 338 339 327 318 287 344 348 280 314 316 308 293 299 311 296 290 250 145 111 72 198 318 277 52 28 92 105 16 355
282 269 258 252 227 209 205 210 217 241 301 283 281 276 273 291 248 339 315 313 342 345 349 333 342 320 305 295 292 12 338 332 290 289 156 137 118 129 325 15 316 330 90 130 181 116 95
281 271 252 246 222 205 199 204 211 224 248 286 286 296 278 281 271 311 306 319 321 320 293 321 338 308 275 330 23 358 336 332 348 347 338 350 313 179 202 203 123 139 166 211 82 160 166
278 261 239 237 220 201 194 197 205 218 240 286 282 279 253 267 284 269 294 292 315 315 327 329 327 7 326 46 23 337 347 356 12 53 338 355 330 20 346 321 298 328 121 68 162 91 141
274 262 229 229 214 195 189 193 200 214 225 268 274 319 333 251 285 293 280 267 251 256 283 290 260 238 320 351 164 183 355 1 339 319 342 75 3 315 43 347 308 39 82 105 108 96 50